{"data":{"norad_id":45142,"intl_designator":"2020-008M","name":"ONEWEB-0033","alt_names":[],"object_type":"PAYLOAD","status":"ACTIVE","operator":null,"country":"UK","launch_date":"2020-02-06","launch_site_code":"TYMSC","launch_vehicle":null,"mission":null,"orbit_class":"UNKNOWN","rcs_meters":null,"size_class":null,"mass_kg":null,"dimensions":null,"purposes":["comms"],"wikipedia_slug":null,"has_3d_model":false,"image_url":null,"decayed_at":null,"tle_current":{"epoch":"2026-05-25T03:29:38.672736Z","epoch_age_seconds":72863,"freshness":"FRESH","line1":"1 45142U 20008M   26145.14558649  .00000286  00000+0  78264-3 0  9991","line2":"2 45142  87.8854  40.8650 0001303  77.3902 282.7371 13.10377612305195","mean_motion":13.10377612,"eccentricity":0.0001303,"inclination_deg":87.8854,"raan_deg":40.865,"arg_perigee_deg":77.3902,"mean_anomaly_deg":282.7371,"bstar":0.00078264,"rev_number":30519,"period_min":109.89198737928,"perigee_km":1220.708352339,"apogee_km":1222.6888694992,"semimajor_km":7599.8356109191,"source":"CELESTRAK","updated_at":"2026-05-25T13:38:22.335255Z"}}}